, MS

(GMT )
Nakika

Weather History for KIKT - March, 2014

Change the Weather History Date:

Wednesday, March 5, 2014

  Actual Average Record
Temperature  
Mean Temperature 62 °F -  
Max Temperature 68 °F - - ()
Min Temperature 55 °F - - ()
Degree Days  
Heating Degree Days 4    
Growing Degree Days 12 (Base 50)    
Moisture  
Dew Point 61 °F    
Average Humidity 90    
Maximum Humidity 94    
Minimum Humidity 83    
Precipitation  
Precipitation 0.14 in - - ()
Sea Level Pressure  
Sea Level Pressure 29.97 in    
Wind  
Wind Speed 17 mph (East)    
Max Wind Speed 30 mph    
Max Gust Speed 37 mph    
Visibility 8 miles    
Events      
T = Trace of Precipitation, MM = Missing Value Source: NWS Daily Summary

Daily Weather History Graph

Daily Weather History Graph

Search for Another Location

Airport or City:

Trip Planner

Search our weather history database for the weather conditions in past years. The results will help you decide how hot, cold, wet, or windy it might be!

Date:

Astronomy

Mar. 05, 2014 Rise Set
Actual Time 6:13 AM CST 5:55 PM CST
Civil Twilight 5:50 AM CST 6:19 PM CST
Nautical Twilight 5:22 AM CST 6:46 PM CST
Astronomical Twilight 4:55 AM CST 7:14 PM CST
Moon 9:03 AM CST (3/5) 10:37 PM CST (3/5)
Length of Visible Light 12h 29m
Length of Day
11h 41m
Waxing Crescent, 23% of the Moon is Illuminated
Mar 5
Waxing Crescent
Mar 8
First Quarter
Mar 16
Full
Mar 23
Last Quarter
Mar 30
New

Hourly Weather History & Observations

Time (CST) Temp. Dew Point Humidity Pressure Visibility Wind Dir Wind Speed Gust Speed Precip Events Conditions
12:20 AM 57.2 °F 55.4 °F 94% 30.04 in 3.0 mi NE 10.4 mph 18.4 mph N/A   Overcast
12:35 AM 55.4 °F 53.6 °F 94% 30.04 in 2.0 mi ENE 11.5 mph 19.6 mph N/A   Overcast
1:00 AM 57.2 °F 55.4 °F 94% 30.03 in 3.0 mi ENE 15.0 mph - 0.06 in   Overcast
1:15 AM 57.2 °F 55.4 °F 94% 30.03 in 4.0 mi ENE 11.5 mph - N/A   Overcast
1:40 AM 57.2 °F 55.4 °F 94% 30.00 in 7.0 mi ENE 13.8 mph - N/A   Overcast
1:55 AM 57.2 °F 55.4 °F 94% 30.00 in 8.0 mi ENE 10.4 mph 18.4 mph N/A   Overcast
2:20 AM 59.0 °F 55.4 °F 88% 30.01 in 6.0 mi ENE 12.7 mph - N/A   Overcast
2:35 AM 59.0 °F 57.2 °F 94% 29.99 in 3.0 mi ENE 13.8 mph - N/A   Overcast
3:00 AM 59.0 °F 57.2 °F 94% 30.00 in 10.0 mi NE 6.9 mph 13.8 mph N/A   Overcast
3:20 AM 59.0 °F 57.2 °F 94% 30.01 in 10.0 mi NE 8.1 mph - N/A   Overcast
3:35 AM 59.0 °F 57.2 °F 94% 29.99 in 5.0 mi ENE 9.2 mph - N/A   Mostly Cloudy
4:00 AM 59.0 °F 57.2 °F 94% 29.98 in 5.0 mi ENE 17.3 mph - 0.01 in   Mostly Cloudy
4:15 AM 59.0 °F 57.2 °F 94% 29.96 in 10.0 mi ENE 18.4 mph - N/A   Overcast
4:35 AM 60.8 °F 59.0 °F 94% 29.96 in 10.0 mi ENE 10.4 mph 17.3 mph N/A   Overcast
5:00 AM 60.8 °F 59.0 °F 94% 30.00 in 9.0 mi SE 20.7 mph - N/A   Overcast
5:20 AM 60.8 °F 59.0 °F 94% 29.98 in 7.0 mi East 21.9 mph - N/A   Overcast
5:35 AM 62.6 °F 60.8 °F 94% 29.99 in 10.0 mi East 23.0 mph - N/A   Overcast
6:00 AM 62.6 °F 60.8 °F 94% 29.98 in 5.0 mi East 21.9 mph - 0.01 in   Overcast
6:20 AM 62.6 °F 60.8 °F 94% 29.99 in 8.0 mi ESE 20.7 mph - N/A   Mostly Cloudy
6:35 AM 62.6 °F 60.8 °F 94% 29.99 in 8.0 mi ESE 18.4 mph - N/A   Overcast
7:00 AM 62.6 °F 60.8 °F 94% 29.99 in 6.0 mi ESE 19.6 mph - N/A   Mostly Cloudy
7:20 AM 62.6 °F 60.8 °F 94% 30.00 in 9.0 mi ESE 17.3 mph - N/A   Mostly Cloudy
7:35 AM 64.4 °F 60.8 °F 88% 30.01 in 5.0 mi ESE 15.0 mph - N/A   Mostly Cloudy
8:00 AM 64.4 °F 62.6 °F 94% 30.01 in 7.0 mi SE 13.8 mph - 0.01 in   Mostly Cloudy
8:15 AM 64.4 °F 62.6 °F 94% 30.01 in 9.0 mi ESE 16.1 mph - N/A   Scattered Clouds
8:40 AM 66.2 °F 62.6 °F 88% 30.02 in 10.0 mi ESE 13.8 mph - N/A   Partly Cloudy
8:55 AM 66.2 °F 62.6 °F 88% 30.02 in 9.0 mi ESE 13.8 mph - N/A   Scattered Clouds
9:20 AM 66.2 °F 62.6 °F 88% 30.02 in 10.0 mi ESE 12.7 mph - N/A   Scattered Clouds
9:35 AM 68.0 °F 62.6 °F 83% 30.02 in 9.0 mi East 9.2 mph - N/A   Mostly Cloudy
10:00 AM 66.2 °F 62.6 °F 88% 30.01 in 10.0 mi NE 9.2 mph 15.0 mph N/A   Mostly Cloudy
10:15 AM 64.4 °F 62.6 °F 94% 30.01 in 9.0 mi NE 10.4 mph 17.3 mph N/A   Overcast
10:40 AM 64.4 °F 62.6 °F 94% 30.01 in 9.0 mi NE 9.2 mph - N/A   Overcast
10:55 AM 66.2 °F 62.6 °F 88% 30.00 in 10.0 mi ENE 17.3 mph - N/A   Mostly Cloudy
11:20 AM 66.2 °F 62.6 °F 88% 29.99 in 10.0 mi ENE 18.4 mph - N/A   Partly Cloudy
11:35 AM 66.2 °F 62.6 °F 88% 29.99 in 10.0 mi ENE 18.4 mph - N/A   Scattered Clouds
12:00 PM 66.2 °F 62.6 °F 88% 29.99 in 10.0 mi East 17.3 mph - N/A   Mostly Cloudy
12:15 PM 68.0 °F 62.6 °F 83% 29.98 in 10.0 mi East 17.3 mph - N/A   Mostly Cloudy
12:40 PM 66.2 °F 62.6 °F 88% 29.96 in 10.0 mi ENE 17.3 mph - N/A   Mostly Cloudy
12:55 PM 66.2 °F 62.6 °F 88% 29.95 in 10.0 mi ENE 18.4 mph - N/A   Mostly Cloudy
1:20 PM 66.2 °F 62.6 °F 88% 29.95 in 10.0 mi ENE 19.6 mph - N/A   Overcast
1:35 PM 66.2 °F 60.8 °F 83% 29.95 in 10.0 mi ENE 19.6 mph - N/A   Overcast
2:00 PM 66.2 °F 60.8 °F 83% 29.94 in 10.0 mi East 21.9 mph - N/A   Overcast
2:15 PM 66.2 °F 60.8 °F 83% 29.94 in 10.0 mi East 20.7 mph - N/A   Overcast
2:40 PM 66.2 °F 60.8 °F 83% 29.94 in 10.0 mi East 23.0 mph - N/A   Overcast
2:55 PM 66.2 °F 60.8 °F 83% 29.93 in 10.0 mi East 23.0 mph - N/A   Overcast
3:20 PM 66.2 °F 60.8 °F 83% 29.93 in 10.0 mi ENE 23.0 mph - N/A   Overcast
3:40 PM 66.2 °F 60.8 °F 83% 29.93 in 10.0 mi East 24.2 mph - N/A   Overcast
4:00 PM 66.2 °F 62.6 °F 88% 29.93 in 10.0 mi East 27.6 mph - N/A   Overcast
4:20 PM 64.4 °F 62.6 °F 94% 29.93 in 9.0 mi East 29.9 mph - N/A   Overcast
4:35 PM 64.4 °F 62.6 °F 94% 29.93 in 9.0 mi East 26.5 mph - N/A   Overcast
5:00 PM 64.4 °F 60.8 °F 88% 29.93 in 10.0 mi East 28.8 mph - N/A   Overcast
5:15 PM 64.4 °F 62.6 °F 94% 29.93 in 9.0 mi East 27.6 mph - N/A   Overcast
5:40 PM 64.4 °F 62.6 °F 94% 29.93 in 9.0 mi ENE 26.5 mph - N/A   Overcast
5:55 PM 64.4 °F 62.6 °F 94% 29.94 in 9.0 mi ENE 26.5 mph - N/A   Overcast
6:20 PM 66.2 °F 62.6 °F 88% 29.94 in 10.0 mi ENE 27.6 mph - N/A   Overcast
6:35 PM 66.2 °F 62.6 °F 88% 29.94 in 10.0 mi ENE 25.3 mph - N/A   Overcast
7:00 PM 66.2 °F 62.6 °F 88% 29.96 in 10.0 mi East 25.3 mph - N/A   Overcast
7:15 PM 66.2 °F 62.6 °F 88% 29.96 in 10.0 mi ENE 24.2 mph - N/A   Overcast
7:40 PM 66.2 °F 62.6 °F 88% 29.96 in 10.0 mi ENE 25.3 mph - N/A   Overcast
7:55 PM 66.2 °F 62.6 °F 88% 29.96 in 9.0 mi East 25.3 mph - N/A   Overcast
8:20 PM 66.2 °F 62.6 °F 88% 29.96 in 2.0 mi ENE 24.2 mph - N/A   Overcast
8:35 PM 64.4 °F 62.6 °F 94% 29.95 in 4.0 mi ENE 25.3 mph - N/A   Overcast
9:00 PM 66.2 °F 62.6 °F 88% 29.95 in 10.0 mi East 27.6 mph - 0.03 in   Overcast
9:15 PM 66.2 °F 62.6 °F 88% 29.95 in 9.0 mi East 28.8 mph - N/A   Mostly Cloudy
9:40 PM 66.2 °F 62.6 °F 88% 29.97 in 10.0 mi East 23.0 mph - N/A   Overcast
9:55 PM 66.2 °F 62.6 °F 88% 29.96 in 8.0 mi East 24.2 mph - N/A   Overcast
10:20 PM 66.2 °F 62.6 °F 88% 29.96 in 5.0 mi East 21.9 mph - N/A   Overcast
10:35 PM 66.2 °F 62.6 °F 88% 29.96 in 4.0 mi East 21.9 mph - N/A   Overcast
11:00 PM 66.2 °F 64.4 °F 94% 29.90 in 3.0 mi East 27.6 mph 36.8 mph 0.02 in   Overcast
11:15 PM 66.2 °F 64.4 °F 94% 29.90 in 5.0 mi ESE 27.6 mph 34.5 mph N/A   Overcast
11:40 PM 68.0 °F 64.4 °F 88% 29.85 in 8.0 mi East 21.9 mph 28.8 mph N/A   Partly Cloudy
11:55 PM 68.0 °F 64.4 °F 88% 29.85 in 6.0 mi East 20.7 mph - N/A   Clear